{"data":{"norad_id":55602,"intl_designator":"2023-020AK","name":"STARLINK-5764","alt_names":[],"object_type":"PAYLOAD","status":"ACTIVE","operator":null,"country":"US","launch_date":"2023-02-12","launch_site_code":"AFETR","launch_vehicle":null,"mission":null,"orbit_class":"UNKNOWN","rcs_meters":null,"size_class":null,"mass_kg":null,"dimensions":null,"purposes":["comms"],"wikipedia_slug":null,"has_3d_model":false,"image_url":null,"decayed_at":null,"tle_current":{"epoch":"2026-09-20T15:42:05.122080Z","epoch_age_seconds":86870,"freshness":"FRESH","line1":"1 55602U 23020AK  26263.65422595 -.00000536  00000+0 -99450-5 0  9999","line2":"2 55602  43.0058 333.4119 0001680 283.7101  76.3564 15.27572424198852","mean_motion":15.27572424,"eccentricity":0.000168,"inclination_deg":43.0058,"raan_deg":333.4119,"arg_perigee_deg":283.7101,"mean_anomaly_deg":76.3564,"bstar":-9.945e-6,"rev_number":19885,"period_min":94.267216229873,"perigee_km":481.91909832758,"apogee_km":484.22446447814,"semimajor_km":6861.2087814029,"source":"CELESTRAK","updated_at":"2026-09-21T09:00:33.272069Z"}}}